Location: Eaton Estates
(41.3089°N, 82.0057°W)
Time: 00:40:55
(UTC+00:00)

BREEZE-M DEB (TANK) - Pass Details

Date: 17 June 2021
Orbit: 334 x 16573 km, 49.3° (Epoch: 01 August)

Event Time Altitude Azimuth Distance (km) Brightness Sun altitude
Rises 03:37:10 0° 228° (SW) 10,120 8.6 -20.3°
Reaches altitude 10° 03:47:06 10° 228° (SW) 6,617 7.6 -21.1°
Maximum altitude 04:01:05 70° 149° (SSE) 1,098 3.5 -22.2°
Drops below altitude 10° 04:04:54 10° 65° (ENE) 1,929 5.1 -22.4°
Sets 04:06:15 0° 62° (ENE) 2,550 5.8 -22.5°
